Lexington, KY

1:57 PM EDT on March 29, 2017 (GMT -0400)
Blue Grass

Weather History for KLEX - August, 2013

Change the Weather History Date:

Saturday, August 17, 2013

  Actual Average Record
Temperature  
Mean Temperature 73 °F 76 °F  
Max Temperature 83 °F 86 °F 99 °F (1936)
Min Temperature 63 °F 65 °F 52 °F (1979)
Degree Days  
Heating Degree Days 0 0  
Month to date heating degree days 3 0  
Since 1 June heating degree days 3 11  
Since 1 July heating degree days 3 0  
Cooling Degree Days 8 11  
Month to date cooling degree days 144 187  
Year to date cooling degree days 867 883  
Since 1 June cooling degree days 714 776  
Growing Degree Days 22 (Base 50)    
Moisture  
Dew Point 59 °F    
Average Humidity 66    
Maximum Humidity 84    
Minimum Humidity 48    
Precipitation  
Precipitation T in 0.10 in 1.96 in (1946)
Month to date precipitation 2.98 1.89  
Year to date precipitation 41.48 30.31  
Snow  
Snow 0.00 in 0.00 in - ()
Month to date snowfall 0.0 0.0  
Since 1 June snowfall 0.0 0.0  
Since 1 July snowfall 0.0 0.0  
Snow Depth 0.00 in    
Sea Level Pressure  
Sea Level Pressure 30.13 in    
Wind  
Wind Speed 7 mph (East)    
Max Wind Speed 15 mph    
Max Gust Speed 18 mph    
Visibility 10 miles    
Events Rain    
T = Trace of Precipitation, MM = Missing Value Source: NWS Daily Summary

Daily Weather History Graph

Daily Weather History Graph

Search for Another Location

Airport or City:

Trip Planner

Search our weather history database for the weather conditions in past years. The results will help you decide how hot, cold, wet, or windy it might be!

Date:

Astronomy

Aug. 17, 2013 Rise Set
Actual Time 6:55 AM EDT 8:28 PM EDT
Civil Twilight 6:27 AM EDT 8:56 PM EDT
Nautical Twilight 5:53 AM EDT 9:30 PM EDT
Astronomical Twilight 5:18 AM EDT 10:05 PM EDT
Moon 5:41 PM EDT (8/17) 2:59 AM EDT (8/17)
Length of Visible Light 14h 29m
Length of Day
13h 33m
Waxing Gibbous, 84% of the Moon is Illuminated
Aug 17
Waxing Gibbous
Aug 20
Full
Aug 28
Last Quarter
Sep 5
New
Sep 12
First Quarter

Hourly Weather History & Observations

Time (EDT) Temp. Heat Index Dew Point Humidity Pressure Visibility Wind Dir Wind Speed Gust Speed Precip Events Conditions
12:54 AM 66.0 °F - 57.0 °F 73% 30.13 in 10.0 mi NE 8.1 mph - N/A   Overcast
1:54 AM 64.0 °F - 57.0 °F 78% 30.13 in 10.0 mi NNE 5.8 mph - N/A   Partly Cloudy
2:54 AM 63.0 °F - 57.0 °F 81% 30.12 in 10.0 mi ENE 5.8 mph - N/A   Clear
3:54 AM 63.0 °F - 57.9 °F 84% 30.12 in 10.0 mi NE 5.8 mph - N/A   Mostly Cloudy
4:54 AM 64.0 °F - 57.9 °F 80% 30.12 in 10.0 mi ENE 5.8 mph - N/A   Mostly Cloudy
5:54 AM 64.0 °F - 57.9 °F 80% 30.12 in 10.0 mi ENE 9.2 mph - 0.00 in Rain Light Rain
6:54 AM 64.0 °F - 57.0 °F 78% 30.13 in 10.0 mi NE 6.9 mph - 0.00 in   Overcast
7:54 AM 64.9 °F - 57.9 °F 78% 30.13 in 10.0 mi ENE 8.1 mph - N/A   Overcast
8:54 AM 66.0 °F - 57.9 °F 75% 30.15 in 10.0 mi ENE 6.9 mph - N/A   Overcast
9:54 AM 68.0 °F - 60.1 °F 76% 30.14 in 10.0 mi NE 8.1 mph - N/A   Mostly Cloudy
10:54 AM 71.1 °F - 61.0 °F 70% 30.17 in 10.0 mi Calm Calm - N/A   Scattered Clouds
11:54 AM 75.9 °F - 64.0 °F 67% 30.16 in 10.0 mi SSE 3.5 mph - 0.00 in   Clear
12:54 PM 79.0 °F - 63.0 °F 58% 30.14 in 10.0 mi Variable 4.6 mph - N/A   Clear
1:54 PM 80.1 °F 81.1 °F 61.0 °F 52% 30.12 in 10.0 mi North - - N/A   Clear
2:54 PM 81.0 °F 81.6 °F 60.1 °F 49% 30.11 in 10.0 mi ESE 4.6 mph - N/A   Scattered Clouds
3:54 PM 81.0 °F 81.7 °F 61.0 °F 50% 30.10 in 10.0 mi East 8.1 mph - N/A   Scattered Clouds
4:54 PM 80.1 °F 80.9 °F 60.1 °F 50% 30.10 in 10.0 mi East 6.9 mph - N/A   Overcast
5:54 PM 80.1 °F 80.9 °F 60.1 °F 50% 30.11 in 10.0 mi ESE 9.2 mph - N/A   Scattered Clouds
6:54 PM 78.1 °F - 57.9 °F 50% 30.10 in 10.0 mi ESE 12.7 mph - N/A   Clear
7:54 PM 75.9 °F - 57.9 °F 54% 30.11 in 10.0 mi East 13.8 mph - N/A   Clear
8:54 PM 73.0 °F - 60.1 °F 64% 30.12 in 10.0 mi East 9.2 mph - N/A   Clear
9:54 PM 71.1 °F - 60.1 °F 68% 30.13 in 10.0 mi ESE 8.1 mph - N/A   Clear
10:54 PM 70.0 °F - 60.1 °F 71% 30.13 in 10.0 mi ESE 6.9 mph - N/A   Clear
11:54 PM 69.1 °F - 60.1 °F 73% 30.12 in 10.0 mi East 6.9 mph - N/A   Clear